Back to catalog

CZ-6A DEB

AlivePO
NORAD 54437·DEBRIS·🇨🇳 China

Launched Nov 11, 2022 from Taiyuan Satellite Launch Center

Loading…

Next Passes (next 24 hours)

TLE

FreshSource: Space-Track

Epoch: Sep 14, 2026, 14:37 UTC

1 54437U 22151FM  26257.60966116  .00004092  00000-0  75076-3 0  9994
2 54437  98.6177 324.3979 0087741  14.1860 346.1775 14.63856240203037

Track CZ-6A DEB in real time with AllMySat

Download on the App Store